STARLINK-1836 (47127 NORAD) Tracking and Keplerian Element Data
This shows tracking and keplerian element data for the satellite.
Feedback or suggestion? Click here.
Element | Value |
Catalog | 47127 |
Name | STARLINK-1836 |
Epoch Orbit | 182 |
Epoch Day | 20.91667824 |
Epoch Year | 2021 |
RAAN | 74.1272 |
Inclination | 53.056 |
Eccentricity | 0.000173 |
Argument of Perigee | 36.7849 |
Mean Anonmoly | 65.837 |
Mean Motion | 15.62749059 |
Decay Rate | -2.43E-06 |
L1 | 1 47127U 20088F 21020.91667824 -.00000243 00000-0 31841-5 0 9999 |
L2 | 2 47127 53.0560 74.1272 0001730 36.7849 65.8370 15.62749059 1821 |
Live tracking and technical data element details for STARLINK-1836 (NORAD 47127). STARLINK-1836 can be tracked NOW for your location showing map with azimuth and elevation plus other details from your city location.
Track the satellite on the map from your city or location and see movement details for azimuth, elevation, latitude, longitude, range, height, and movement on the map or in text.
IsCatalogInMostPopularTable: catalog: 47127, numindb: 16
Update: records affected: 1
GetName: 47127 STARLINK-1836
Hit Count: updated at: Sat, 23 Jan 2021 16:48:53 GMT